Jacksonville, FL

11:28 PM EDT on May 23, 2018 (GMT -0400)
Jacksonville International

Weather History for KJAX - February, 2013

Change the Weather History Date:

Thursday, February 28, 2013

  Actual Average Record
Temperature  
Mean Temperature 58 °F 59 °F  
Max Temperature 68 °F 71 °F 87 °F (1962)
Min Temperature 48 °F 47 °F 25 °F (2002)
Degree Days  
Heating Degree Days 7 7  
Month to date heating degree days 236 256  
Since 1 July heating degree days 893 1133  
Cooling Degree Days 0 1  
Month to date cooling degree days 35 18  
Year to date cooling degree days 76 29  
Growing Degree Days 8 (Base 50)    
Moisture  
Dew Point 40 °F    
Average Humidity 63    
Maximum Humidity 93    
Minimum Humidity 32    
Precipitation  
Precipitation 0.00 in 0.12 in 1.98 in (1914)
Month to date precipitation 4.71 3.19  
Year to date precipitation 5.72 6.49  
Snow  
Snow 0.00 in 0.00 in 0.00 in (2002)
Month to date snowfall 0.0 0.0  
Since 1 July snowfall 0.0 T  
Snow Depth 0.00 in    
Sea Level Pressure  
Sea Level Pressure 29.93 in    
Wind  
Wind Speed 10 mph (West)    
Max Wind Speed 25 mph    
Max Gust Speed 32 mph    
Visibility 10 miles    
Events      
T = Trace of Precipitation, MM = Missing Value Source: NWS Daily Summary

Daily Weather History Graph

Daily Weather History Graph

Search for Another Location

Airport or City:

Astronomy

Feb. 28, 2013 Rise Set
Actual Time 6:53 AM EST 6:25 PM EST
Civil Twilight 6:29 AM EST 6:49 PM EST
Nautical Twilight 6:01 AM EST 7:17 PM EST
Astronomical Twilight 5:33 AM EST 7:44 PM EST
Moon 9:31 PM EST (2/28) 8:18 AM EST (2/28)
Length of Visible Light 12h 19m
Length of Day
11h 31m
Waning Gibbous, 91% of the Moon is Illuminated
Feb 28
Waning Gibbous
Mar 4
Last Quarter
Mar 11
New
Mar 19
First Quarter
Mar 27
Full

Hourly Weather History & Observations

Time (EST) Temp. Dew Point Humidity Pressure Visibility Wind Dir Wind Speed Gust Speed Precip Events Conditions
12:56 AM 51.8 °F 44.6 °F 76% 29.94 in 10.0 mi West 4.6 mph - N/A   Mostly Cloudy
1:56 AM 48.9 °F 43.0 °F 80% 29.94 in 10.0 mi West 4.6 mph - N/A   Mostly Cloudy
2:56 AM 48.9 °F 44.1 °F 83% 29.94 in 10.0 mi WSW 5.8 mph - N/A   Partly Cloudy
3:56 AM 48.9 °F 44.1 °F 83% 29.94 in 10.0 mi WSW 5.8 mph - N/A   Partly Cloudy
4:56 AM 48.9 °F 44.1 °F 83% 29.94 in 10.0 mi WSW 5.8 mph - N/A   Clear
5:56 AM 48.0 °F 43.0 °F 83% 29.94 in 10.0 mi West 8.1 mph - N/A   Clear
6:56 AM 48.9 °F 45.0 °F 86% 29.95 in 10.0 mi West 6.9 mph - N/A   Partly Cloudy
7:56 AM 51.6 °F 49.8 °F 94% 29.97 in 10.0 mi West 5.8 mph - N/A   Partly Cloudy
8:56 AM 53.4 °F 47.1 °F 79% 29.99 in 10.0 mi WNW 9.2 mph - N/A   Partly Cloudy
9:56 AM 57.9 °F 39.9 °F 51% 29.98 in 10.0 mi NW 10.4 mph - N/A   Clear
10:56 AM 61.0 °F 39.9 °F 46% 29.97 in 10.0 mi West 9.2 mph 17.3 mph N/A   Partly Cloudy
11:56 AM 64.0 °F 41.0 °F 43% 29.94 in 10.0 mi West 15.0 mph 18.4 mph N/A   Partly Cloudy
12:56 PM 66.0 °F 41.0 °F 40% 29.91 in 10.0 mi West 16.1 mph 24.2 mph N/A   Mostly Cloudy
1:56 PM 66.9 °F 42.1 °F 40% 29.88 in 10.0 mi West 18.4 mph 26.5 mph N/A   Scattered Clouds
2:56 PM 68.0 °F 41.0 °F 37% 29.87 in 10.0 mi West 20.7 mph 31.1 mph N/A   Scattered Clouds
3:56 PM 68.0 °F 39.0 °F 35% 29.87 in 10.0 mi West 15.0 mph 24.2 mph N/A   Scattered Clouds
4:56 PM 66.9 °F 36.0 °F 32% 29.86 in 10.0 mi West 17.3 mph 28.8 mph N/A   Partly Cloudy
5:56 PM 64.0 °F 35.1 °F 34% 29.88 in 10.0 mi West 10.4 mph - N/A   Scattered Clouds
6:56 PM 60.1 °F 36.0 °F 41% 29.89 in 10.0 mi West 6.9 mph - N/A   Mostly Cloudy
7:56 PM 59.0 °F 35.1 °F 41% 29.91 in 10.0 mi WNW 6.9 mph - N/A   Mostly Cloudy
8:56 PM 57.9 °F 32.0 °F 37% 29.93 in 10.0 mi WNW 6.9 mph - N/A   Mostly Cloudy
9:56 PM 55.9 °F 33.1 °F 42% 29.93 in 10.0 mi NW 5.8 mph - N/A   Mostly Cloudy
10:56 PM 55.0 °F 33.1 °F 43% 29.93 in 10.0 mi WNW 8.1 mph - N/A   Mostly Cloudy
11:56 PM 54.0 °F 33.1 °F 45% 29.94 in 10.0 mi WNW 8.1 mph - N/A   Mostly Cloudy